Regional Weather Roundup
Issued by NWS Burlington, VT

Current Version | Previous Version | Text Only | Print | Product List | Glossary On
Versions: 1 2 3 4 5 6 7 8 9 10 11 12 13 14 15 16 17 18 19 20 21 22 23 24 25 26 27 28 29 30 31 32 33 34 35 36 37 38 39 40 41 42 43 44 45 46 47 48 49 50
000 ASUS41 KBTV 200330 RWRBTV VERMONT REGIONAL WEATHER ROUNDUP NATIONAL WEATHER SERVICE BURLINGTON VT 1100 PM EDT SAT APR 19 2014 NOTE: "FAIR" INDICATES FEW OR NO CLOUDS BELOW 12,000 FEET WITH NO SIGNIFICANT WEATHER AND/OR OBSTRUCTIONS TO VISIBILITY. * THESE REPORTS ARE NOT UNDER NWS QUALITY CONTROL AND/OR DO NOT REPORT WEATHER SUCH AS PRECIPITATION AND FOG. VTZ001>019-200400- _____VERMONT_____ CITY SKY/WX TMP DP RH WIND PRES REMARKS BURLINGTON CLEAR 35 26 69 SE3 30.44R MONTPELIER CLEAR 35 21 56 W5 30.44R MORRISVILLE CLEAR 28 23 81 S3 30.43R ST. JOHNSBURY* N/A 31 23 72 MISG 30.40R LYNDONVILLE* FAIR 33 19 56 CALM 30.41R MIDDLEBURY* FAIR 36 26 68 CALM 30.44R RUTLAND* CLEAR 36 25 64 CALM 30.42S SPRINGFIELD CLEAR 35 24 64 CALM 30.42R HIGHGATE* FAIR 33 26 73 S3 30.43S NEWPORT* FAIR 32 22 66 SW6 30.41R BENNINGTON PTCLDY 35 25 66 CALM 30.41R SUTTON* N/A 32 N/A N/A MISG N/A MT. MANSFIELD* N/A 25 N/A N/A NW15 N/A WCI 12 _____LAKE CHAMPLAIN_____ CITY SKY/WX TMP DP RH WIND PRES REMARKS BURTON ISLAND* N/A 39 30 70 NE1 N/A COLCHESTER RF* N/A 41 27 56 NW10 N/A DIAMOND ISL* N/A 43 23 45 W12 N/A $$ NYZ007-026>031-035-052-083-200400- _____NORTHERN NEW YORK_____ CITY SKY/WX TMP DP RH WIND PRES REMARKS PLATTSBURGH CLEAR 36 23 59 W5 30.43R SARANAC LAKE CLEAR 24 20 84 CALM 30.40R MASSENA CLEAR 30 25 81 CALM 30.46S OGDENSBURG* CLEAR 32 30 93 CALM 30.45S POTSDAM* CLEAR 28 27 93 CALM 30.45R WATERTOWN CLEAR 30 26 85 E5 30.44S FT DRUM CLEAR 33 29 85 SW2 30.43S ALBANY MOCLDY 45 23 42 N7 30.42R GLENS FALLS CLEAR 40 26 57 N3 30.44R $$ NHZ002-005-011-200400- _____NEW HAMPSHIRE_____ CITY SKY/WX TMP DP RH WIND PRES REMARKS LEBANON CLEAR 31 24 75 CALM 30.42R KEENE CLEAR 37 23 56 CALM 30.42R MT WASHINGTON PTCLDY 14 9 79 N41G59 N/A WCI -10 PLYMOUTH N/A 34 27 74 W6 30.42R WHITEFIELD CLEAR 27 22 81 CALM 30.39R $$ _____REGIONAL QUEBEC LOCATIONS_____ CITY SKY/WX TMP DP RH WIND PRES REMARKS MONTREAL CLEAR 36 18 48 N3 30.44R QUEBEC CITY CLEAR 34 16 47 N7 30.42R SHERBROOKE CLEAR 30 19 64 S5 30.40R _____REGIONAL ONTARIO LOCATIONS_____ CITY SKY/WX TMP DP RH WIND PRES REMARKS OTTAWA CLEAR 37 10 32 N3 30.45S ______KEY______ VSB - VISIBILITY IN MILES WCI - WIND CHILL INDEX HX - HEAT INDEX $$

USA.gov is the U.S. government's official web portal to all federal, state and local government web resources and services.